Location: Newark
(49.8500°N, 20.8167°E)
Time: 01:31:33
(UTC+00:00)

N. Korean satellite - Visible Passes

Search period start: 14 October 2019 00:00
Search period end: 24 October 2019 00:00
Orbit: 455 x 508 km, 97.2° (Epoch: 13 October)

Date Brightness Start Highest point End Pass type
(mag) Time Alt. Az. Time Alt. Az. Time Alt. Az.
14 Oct 8.4 04:12:24 10° NNE 04:15:45 37° E 04:19:06 10° SSE visible
14 Oct 9.5 16:26:06 10° SSW 16:28:51 23° W 16:31:39 10° NW visible
15 Oct 9.7 03:47:36 10° NE 03:50:19 20° E 03:53:02 10° SE visible
16 Oct 10.4 03:23:45 10° ENE 03:24:48 11° E 03:25:51 10° ESE visible
17 Oct 10.1 16:44:30 10° SW 16:46:31 15° W 16:48:32 10° NW visible
18 Oct 8.8 04:04:42 10° NNE 04:07:56 31° E 04:11:12 10° SSE visible
18 Oct 9.0 16:18:02 10° SSW 16:21:00 27° W 16:24:01 10° NW visible
19 Oct 9.9 03:40:02 10° NE 03:42:29 17° E 03:44:56 10° SE visible
21 Oct 7.7 04:21:58 10° NNE 04:25:30 50° E 04:29:04 10° S visible
21 Oct 9.8 16:36:11 10° SW 16:38:37 18° W 16:41:03 10° NW visible
22 Oct 9.1 03:56:59 10° NE 04:00:06 26° E 04:03:13 10° SSE visible
22 Oct 8.6 16:09:58 10° SSW 16:13:07 33° W 16:16:20 10° NNW visible
23 Oct 10.1 03:32:30 10° NE 03:34:36 15° E 03:36:42 10° SE visible
